EST,Max TemperatureF,Mean TemperatureF,Min TemperatureF,Max Dew PointF,MeanDew PointF,Min DewpointF,Max Humidity, Mean Humidity, Min Humidity, Max Sea Level PressureIn, Mean Sea Level PressureIn, Min Sea Level PressureIn, Max VisibilityMiles, Mean VisibilityMiles, Min VisibilityMiles, Max Wind SpeedMPH, Mean Wind SpeedMPH, Max Gust SpeedMPH,PrecipitationIn, CloudCover, Events, WindDirDegrees
2013-12-1,50,40,30,34,28,25,80,62,43,30.35,30.16,30.02,10,10,10,9,5,,0.00,5,,298
2013-12-2,51,42,33,36,30,27,87,64,38,30.02,29.94,29.88,10,9,3,7,4,,0.00,4,,340
2013-12-3,53,45,37,37,34,28,87,70,47,30.01,29.92,29.87,10,7,2,8,5,,0.00,3,,306
2013-12-4,51,43,35,45,37,28,87,73,54,30.13,30.08,30.01,10,7,2,8,3,,0.00,4,,88
2013-12-5,60,54,48,54,50,45,94,84,72,30.12,30.04,29.95,10,6,0,12,5,16,0.00,8,,175
2013-12-6,62,50,37,57,45,32,94,84,76,30.13,30.00,29.89,10,6,0,21,9,17,0.40,8,,323
2013-12-7,41,34,28,34,26,18,87,67,52,30.51,30.31,30.08,10,10,4,20,10,26,0.08,3,,326
2013-12-8,35,30,24,30,20,12,87,69,48,30.58,30.50,30.33,10,6,0,12,7,,0.18,5,,2
2013-12-9,42,38,33,37,34,28,93,84,75,30.31,30.08,29.97,10,4,1,16,10,21,0.37,7,,327
2013-12-10,35,30,26,28,26,18,87,78,64,30.16,29.99,29.88,10,7,1,16,8,21,0.10,3,,279
2013-12-11,33,28,23,18,14,10,74,57,41,30.36,30.26,30.17,10,10,10,16,8,23,0.00,0,,257
2013-12-12,26,22,19,12,6,3,63,49,37,30.36,30.28,30.19,10,10,10,20,8,24,0.00,0,,288
2013-12-13,35,26,17,14,10,3,63,48,38,30.33,30.21,30.15,10,10,10,17,7,23,0.00,2,,250
2013-12-14,50,38,28,46,27,12,93,74,51,30.45,30.25,29.70,10,7,1,21,9,29,1.00,7,,58
2013-12-15,53,42,30,52,29,18,94,72,52,29.87,29.66,29.49,10,9,1,22,13,31,0.39,7,,277
2013-12-16,32,26,19,19,9,3,68,47,34,30.23,30.08,29.86,10,10,10,20,11,28,0.00,1,,281
2013-12-17,41,32,24,36,23,9,87,73,47,30.22,30.04,29.91,10,7,2,12,3,,0.05,7,,347
2013-12-18,37,30,23,21,18,16,80,61,45,30.19,30.06,29.91,10,10,10,21,10,26,0.00,2,,281
2013-12-19,48,36,24,28,22,16,69,56,40,30.20,30.13,30.05,10,10,10,14,6,16,0.00,0,,228
2013-12-20,55,47,39,48,33,27,77,56,41,30.11,30.05,29.99,10,10,10,13,6,21,0.00,1,,223
2013-12-21,68,60,53,54,48,45,82,69,56,30.02,29.97,29.91,10,10,10,16,9,23,0.00,3,,220
2013-12-22,71,66,62,63,57,54,83,77,64,29.98,29.92,29.83,10,10,5,23,14,34,0.05,5,,214
2013-12-23,62,52,41,61,51,30,94,82,65,30.14,30.00,29.90,10,9,3,20,7,30,0.49,7,,261
2013-12-24,41,34,26,30,19,7,65,52,42,30.35,30.17,30.09,10,10,10,23,13,29,0.02,3,,321
2013-12-25,30,24,19,12,7,3,55,45,37,30.52,30.46,30.35,10,10,10,21,10,28,0.00,0,,320
2013-12-26,39,32,24,23,18,12,74,61,44,30.42,30.28,30.17,10,10,10,16,4,21,0.00,3,,278
2013-12-27,44,34,24,19,17,12,74,52,31,30.38,30.32,30.28,10,10,10,16,6,22,0.00,1,,269
2013-12-28,57,42,28,28,23,16,64,48,31,30.30,30.19,30.09,10,10,10,17,8,28,0.00,1,,235
2013-12-29,51,46,41,48,34,25,93,70,46,30.08,29.80,29.39,10,9,3,21,8,31,1.06,5,,238
2013-12-30,46,35,24,36,26,9,87,64,47,30.18,29.98,29.71,10,10,10,18,10,26,0.00,3,,300
2013-12-31,37,29,21,21,11,7,60,49,40,30.30,30.16,30.07,10,10,10,17,9,25,0.00,4,,295